[[{"header":{"parameterUnit":"m.s-1","parameterCategory":2,"la1":30.2991,"la2":30.254,"lo1":-89.0895,"lo2":-89.0444,"dy":0.0017,"dx":0.0017,"nx":28,"ny":28,"refTime":"2025-02-03T09:00:00:Z","depth":"0","parameterNumber":2,"parameterNumberName":"U-component_of_CURRENTS"},"data":[0,0,0,0,0,0,0,0,0,0,0,0,0,0,0,0,0,0,0,0,0,0,0,0,0,0,0,0,0,0,0,0,0,0,0,0,0,0,0,0,0,0,0,0,0,0,0,0,0,0,0,0,0,0,0,0,0,0,-0.1781,-0.1781,0,-0.1693,-0.1692,-0.1691,-0.1648,-0.1648,-0.1649,-0.1649,-0.1488,-0.1483,-0.1479,0,0,0,0,0,0,0,0,0,0,0,0,0,-0.1841,-0.184,-0.1782,-0.1781,-0.178,-0.1693,-0.1692,-0.1691,-0.1648,-0.1648,-0.1649,-0.1649,-0.1489,-0.1484,-0.1479,0,0,0,0,0,0,0,0,0,0,0,0,0,-0.1789,-0.184,-0.1782,-0.1749,-0.1745,-0.1694,-0.1692,-0.1691,-0.1648,-0.1648,-0.1649,-0.1649,-0.1491,-0.1484,-0.1478,-0.1434,0,0,-0.1458,-0.1455,0,0,0,0,0,0,0,0,-0.1792,-0.1787,-0.1755,-0.1751,-0.1747,-0.1683,-0.1654,-0.1601,-0.1648,-0.1684,-0.1649,-0.1649,-0.1547,-0.1536,-0.1518,-0.1426,-0.1419,-0.1457,-0.1453,-0.145,-0.1449,0,0,0,0,0,0,0,-0.1796,-0.179,-0.1746,-0.1753,-0.1749,-0.1714,-0.1707,-0.1644,-0.1613,-0.1681,-0.1678,-0.167,-0.1544,-0.1525,-0.1514,-0.1417,-0.1457,-0.1452,-0.1448,-0.1445,-0.1327,-0.1328,0,0,0,0,0,0,-0.1813,-0.1794,-0.1748,-0.1743,-0.1772,-0.1713,-0.1705,-0.1702,-0.1615,-0.1603,-0.1669,-0.1668,-0.1536,-0.1522,-0.1508,-0.1493,-0.1451,-0.1444,-0.1441,-0.1326,-0.1327,-0.1328,0,0,0,0,0,0,-0.1814,-0.181,-0.1752,-0.1767,-0.1757,-0.1712,-0.1709,-0.1701,-0.1691,-0.1608,-0.1594,-0.167,-0.1535,-0.1517,-0.1472,-0.1484,-0.1441,-0.1435,-0.1325,-0.1327,-0.1328,-0.1434,0,0,0,0,0,0,-0.1817,-0.1811,-0.1822,-0.1768,-0.1757,-0.1752,-0.1708,-0.1699,-0.1686,-0.1683,-0.1603,-0.1588,-0.1534,-0.1482,-0.1465,-0.1474,-0.143,-0.1324,-0.1326,-0.1327,-0.143,-0.1439,-0.1447,0,0,0,0,0,-0.1819,-0.1849,-0.1823,-0.1818,-0.1771,-0.1753,-0.1746,-0.1712,-0.1686,-0.17,-0.1639,-0.1591,-0.148,-0.1477,-0.1457,-0.1465,-0.1324,-0.1325,-0.1327,-0.1426,-0.1437,-0.1446,0,0,0,0,0,0,-0.1887,-0.1845,-0.1816,-0.1833,-0.1803,-0.1747,-0.176,-0.1721,-0.1683,-0.1683,-0.1593,-0.1575,-0.154,-0.1489,-0.1488,-0.1438,-0.1397,-0.1395,-0.1478,-0.1488,-0.1497,-0.1518,-0.1425,0,0,0,0,0,-0.1903,-0.1912,-0.1861,-0.1875,-0.1867,-0.1809,-0.1798,-0.1774,-0.1729,-0.1713,-0.165,-0.1587,-0.1529,-0.1501,-0.1447,-0.1413,-0.137,-0.1408,-0.1417,-0.1424,-0.1429,-0.1371,-0.1375,-0.1334,-0.1334,-0.1334,0,0,-0.1928,-0.1911,-0.1912,-0.1889,-0.1863,-0.1862,-0.1805,-0.1807,-0.1796,-0.1699,-0.1673,-0.1612,-0.1527,-0.1496,-0.1476,-0.1456,-0.1419,-0.1427,-0.1434,-0.1434,-0.1374,-0.1377,-0.1381,-0.1336,-0.1335,-0.1335,0,0,-0.1992,-0.1973,-0.2,-0.1983,-0.196,-0.1923,-0.1927,-0.1877,-0.1852,-0.1817,-0.1743,-0.1693,-0.1609,-0.1552,-0.1508,-0.1529,-0.1465,-0.1517,-0.1575,-0.1519,-0.1522,-0.1524,-0.1502,-0.1501,-0.1523,-0.1524,-0.1524,0,-0.203,-0.2041,-0.2007,-0.2028,-0.2015,-0.1954,-0.1969,-0.1937,-0.1877,-0.1845,-0.1831,-0.1697,-0.1633,-0.1567,-0.1585,-0.1547,-0.1519,-0.1543,-0.1531,-0.1532,-0.1532,-0.1508,-0.1506,-0.1529,-0.1528,-0.1528,-0.1527,0,-0.2096,-0.2108,-0.213,-0.2122,-0.2111,-0.2122,-0.2066,-0.2049,-0.2003,-0.1948,-0.1885,-0.1799,-0.1716,-0.1695,-0.1646,-0.1611,-0.1595,-0.1548,-0.1508,-0.1542,-0.1516,-0.1511,-0.1537,-0.1535,-0.1533,-0.1532,0,0,-0.2164,-0.2174,-0.2178,-0.2173,-0.2159,-0.2144,-0.2143,-0.2095,-0.2063,-0.2015,-0.1965,-0.1883,-0.1828,-0.1777,-0.1705,-0.1667,-0.1655,-0.1626,-0.162,-0.1611,-0.1563,-0.1519,-0.1509,-0.1609,-0.1608,-0.1607,-0.1555,0,-0.222,-0.2269,-0.2255,-0.2273,-0.2282,-0.2232,-0.2215,-0.2167,-0.2113,-0.2055,-0.1969,-0.1891,-0.1859,-0.1809,-0.1777,-0.1665,-0.1644,-0.1676,-0.1525,-0.1521,-0.1481,-0.1502,-0.1455,-0.14,-0.155,-0.1549,-0.1548,0,-0.2271,-0.2294,-0.2333,-0.2312,-0.2308,-0.2305,-0.2245,-0.2222,-0.2141,-0.2096,-0.2034,-0.1954,-0.188,-0.1845,-0.1723,-0.1747,-0.168,-0.1611,-0.1606,-0.152,-0.1467,-0.1382,-0.1385,-0.1347,-0.1541,-0.1541,-0.1542,0,-0.2294,-0.2331,-0.2354,-0.2354,-0.2336,-0.2325,-0.2297,-0.2231,-0.2183,-0.2108,-0.2061,-0.198,-0.19,-0.1826,-0.1703,-0.1709,-0.1572,-0.1547,-0.1454,-0.1451,-0.1357,-0.1347,-0.1304,-0.1477,-0.1477,-0.1478,-0.1478,0,-0.2335,-0.2345,-0.2363,-0.2367,-0.2358,-0.234,-0.2297,-0.226,-0.2195,-0.2116,-0.207,-0.1993,-0.1888,-0.1793,-0.1717,-0.1574,-0.158,-0.147,-0.1428,-0.1396,-0.139,-0.1306,-0.1296,-0.1476,-0.1476,-0.1476,-0.1477,0,-0.2333,-0.2361,-0.2371,-0.2372,-0.2365,-0.2346,-0.2287,-0.2236,-0.2196,-0.2099,-0.2069,-0.1981,-0.1851,-0.1756,-0.1608,-0.1555,-0.1396,-0.1388,-0.1379,-0.1337,-0.122,-0.1217,-0.1121,-0.1094,-0.1286,-0.1284,-0.1283,0,-0.2333,-0.2346,-0.2357,-0.2333,-0.2326,-0.2298,-0.2252,-0.2228,-0.2165,-0.207,-0.2006,-0.1892,-0.1767,-0.1581,-0.1465,-0.1336,-0.131,-0.1231,-0.1225,-0.1213,-0.1178,-0.1188,-0.1175,-0.1157,-0.1155,-0.1153,-0.1152,0,-0.2287,-0.2292,-0.2269,-0.2243,-0.2209,-0.2167,-0.2109,-0.2082,-0.202,-0.1973,-0.1852,-0.1763,-0.16,-0.1431,-0.1292,-0.1216,-0.1196,-0.1189,-0.1159,-0.1065,-0.1087,-0.1041,-0.1225,-0.1136,-0.1137,-0.1139,-0.1139,-0.114,-0.2191,-0.2165,-0.2115,-0.2067,-0.2045,-0.1966,-0.1882,-0.1857,-0.1774,-0.1659,-0.1688,-0.1538,-0.1407,-0.1194,-0.1129,-0.1001,-0.1041,-0.0958,-0.0956,-0.0969,-0.0938,-0.111,-0.0978,-0.0979,-0.098,-0.098,-0.0981,0,-0.1996,-0.1965,-0.1925,-0.1832,-0.1743,-0.1787,-0.1706,-0.1618,-0.1514,-0.1499,-0.1422,-0.1244,-0.1094,-0.0988,-0.0842,-0.078,-0.079,-0.0761,-0.0769,-0.0766,-0.0888,-0.0877,-0.0738,-0.0738,-0.0738,-0.0738,-0.0738,-0.0738,-0.1866,-0.1749,-0.1734,-0.1521,-0.1472,-0.129,-0.1227,-0.1206,-0.1174,-0.108,-0.0998,-0.0948,-0.0815,-0.0736,-0.0629,-0.062,-0.0607,-0.0595,-0.0608,-0.0699,-0.0718,-0.0736,-0.0723,-0.0554,-0.0554,-0.048,-0.0479,-0.0479]},{"header":{"parameterUnit":"m.s-1","parameterCategory":2,"la1":30.2991,"la2":30.254,"lo1":-89.0895,"lo2":-89.0444,"dy":0.0017,"dx":0.0017,"nx":28,"ny":28,"refTime":"2025-02-03T09:00:00:Z","depth":"0","parameterNumber":3,"parameterNumberName":"V-component_of_CURRENTS"},"data":[0,0,0,0,0,0,0,0,0,0,0,0,0,0,0,0,0,0,0,0,0,0,0,0,0,0,0,0,0,0,0,0,0,0,0,0,0,0,0,0,0,0,0,0,0,0,0,0,0,0,0,0,0,0,0,0,0,0,0.1018,0.1018,0,0.116,0.1162,0.1165,0.1253,0.1252,0.1252,0.1251,0.1359,0.1362,0.1366,0,0,0,0,0,0,0,0,0,0,0,0,0,0.0984,0.0984,0.1017,0.1018,0.1019,0.1159,0.1162,0.1165,0.1253,0.1252,0.1251,0.1251,0.1358,0.1362,0.1366,0,0,0,0,0,0,0,0,0,0,0,0,0,0.106,0.0984,0.1017,0.1071,0.1077,0.1158,0.1162,0.1166,0.1253,0.1252,0.1251,0.125,0.1357,0.1362,0.1367,0.1415,0,0,0.1382,0.1384,0,0,0,0,0,0,0,0,0.1055,0.1062,0.1063,0.1068,0.1074,0.1178,0.1189,0.1244,0.1253,0.1198,0.1251,0.125,0.1288,0.1299,0.1344,0.142,0.1425,0.1383,0.1386,0.1388,0.1389,0,0,0,0,0,0,0,0.105,0.1057,0.1085,0.1063,0.107,0.1143,0.1153,0.1202,0.1254,0.1203,0.1207,0.1205,0.1293,0.1339,0.1347,0.1426,0.1382,0.1387,0.139,0.1392,0.1547,0.1548,0,0,0,0,0,0,0.1002,0.1052,0.108,0.1088,0.105,0.1143,0.1154,0.1154,0.1255,0.1266,0.1205,0.1208,0.1331,0.1341,0.1351,0.1408,0.1388,0.1393,0.1396,0.1546,0.1547,0.1549,0,0,0,0,0,0,0.1001,0.1003,0.1075,0.1064,0.1077,0.1142,0.1143,0.1157,0.1192,0.1255,0.1268,0.1221,0.1331,0.1344,0.1394,0.1412,0.1395,0.14,0.1545,0.1547,0.1548,0.1524,0,0,0,0,0,0,0.0999,0.1002,0.0998,0.1061,0.1075,0.1116,0.1143,0.116,0.1187,0.1192,0.1273,0.1283,0.1331,0.1386,0.1399,0.1419,0.1404,0.1544,0.1546,0.1548,0.1524,0.1525,0.1526,0,0,0,0,0,0.0998,0.0988,0.0997,0.1001,0.1063,0.1115,0.1131,0.1183,0.1188,0.121,0.1262,0.128,0.1408,0.1392,0.1406,0.1428,0.1543,0.1545,0.1547,0.1523,0.1525,0.1526,0,0,0,0,0,0,0.0965,0.0996,0.1008,0.1006,0.105,0.1125,0.1138,0.1172,0.1237,0.1231,0.1296,0.1311,0.1362,0.1397,0.1377,0.1479,0.1478,0.1483,0.1454,0.1456,0.1457,0.1438,0.1408,0,0,0,0,0,0.0952,0.0958,0.1,0.0999,0.1009,0.1072,0.1098,0.1132,0.1186,0.1214,0.1277,0.1335,0.1389,0.142,0.1475,0.153,0.1534,0.1554,0.1555,0.1555,0.1551,0.157,0.1572,0.1556,0.1556,0.1556,0,0,0.0932,0.0953,0.0952,0.0993,0.1026,0.1058,0.1088,0.1115,0.1157,0.1212,0.1289,0.1337,0.1402,0.1469,0.1495,0.1498,0.156,0.1558,0.1558,0.1553,0.1573,0.1574,0.1575,0.1558,0.1558,0.1558,0,0,0.0896,0.0914,0.0905,0.0945,0.0982,0.1034,0.1032,0.1106,0.115,0.1222,0.1269,0.1325,0.1423,0.148,0.1516,0.1553,0.1559,0.157,0.1569,0.1588,0.1588,0.1589,0.1583,0.1583,0.1577,0.1577,0.1577,0,0.0868,0.0873,0.0913,0.0927,0.0954,0.1015,0.1028,0.1092,0.1184,0.1218,0.1236,0.1381,0.1432,0.1508,0.1528,0.1555,0.1553,0.1556,0.1586,0.1587,0.1588,0.1582,0.1582,0.1576,0.1576,0.1576,0.1577,0,0.0835,0.0849,0.0846,0.0891,0.0935,0.0953,0.1031,0.1085,0.1141,0.1209,0.1292,0.1379,0.1456,0.1492,0.1525,0.157,0.156,0.1576,0.1575,0.1588,0.1581,0.1581,0.1575,0.1575,0.1576,0.1576,0,0,0.0731,0.0808,0.0804,0.0825,0.0916,0.094,0.1013,0.1093,0.1122,0.1234,0.1285,0.1402,0.1437,0.1479,0.1532,0.1567,0.1575,0.1572,0.1574,0.155,0.1591,0.1547,0.1544,0.1589,0.1589,0.159,0.1577,0,0.0688,0.0705,0.0769,0.08,0.0812,0.091,0.0972,0.1057,0.1139,0.1211,0.1309,0.137,0.1436,0.1456,0.1508,0.1559,0.1578,0.1575,0.1596,0.1596,0.1543,0.1545,0.149,0.147,0.1578,0.1578,0.1578,0,0.0621,0.0652,0.0666,0.0751,0.0761,0.0799,0.0891,0.0957,0.1079,0.1136,0.1229,0.1302,0.1391,0.1423,0.1524,0.1515,0.1543,0.1582,0.1583,0.155,0.1554,0.148,0.1468,0.1463,0.158,0.1579,0.1579,0,0.0509,0.0574,0.0585,0.0614,0.0721,0.0742,0.0802,0.0918,0.0965,0.1071,0.1098,0.1233,0.1271,0.1359,0.1463,0.148,0.1547,0.1578,0.1565,0.1561,0.1523,0.1515,0.1496,0.1616,0.1616,0.1616,0.1616,0,0.0434,0.0435,0.0525,0.0527,0.0538,0.0642,0.0667,0.0746,0.0847,0.0905,0.1028,0.1087,0.1251,0.1331,0.1428,0.1496,0.1516,0.1555,0.1557,0.1513,0.1505,0.1506,0.1519,0.1615,0.1615,0.1615,0.1616,0,0.0302,0.0363,0.0372,0.046,0.0479,0.048,0.057,0.0608,0.0691,0.0766,0.0789,0.0953,0.1063,0.121,0.1344,0.1418,0.1498,0.1513,0.1439,0.1433,0.1419,0.1433,0.1408,0.1458,0.1498,0.1496,0.1495,0,0.0245,0.0231,0.0291,0.0305,0.0337,0.0364,0.0403,0.0509,0.0567,0.0704,0.074,0.0846,0.0981,0.114,0.1258,0.1382,0.1436,0.1387,0.1421,0.1397,0.1417,0.1421,0.1468,0.1358,0.1356,0.1355,0.1353,0,0.0138,0.0148,0.0165,0.0194,0.0221,0.0276,0.034,0.0367,0.052,0.0596,0.0746,0.0852,0.0962,0.1092,0.1194,0.1275,0.1368,0.1355,0.1361,0.1323,0.1298,0.1354,0.1374,0.1339,0.134,0.1341,0.1342,0.1343,0.006,0.0042,0.0078,0.0105,0.015,0.0248,0.0332,0.0418,0.0535,0.0715,0.0768,0.0922,0.096,0.111,0.1171,0.1186,0.1261,0.123,0.1253,0.1262,0.1297,0.1266,0.1219,0.122,0.1221,0.1221,0.1222,0,0.0001,0.0002,0.0013,0.009,0.017,0.0217,0.0356,0.0481,0.0661,0.0729,0.0882,0.0974,0.1017,0.1043,0.1047,0.1084,0.1141,0.112,0.1124,0.119,0.1174,0.1155,0.1055,0.1055,0.1055,0.1055,0.1055,0.1055,-0.0023,-0.0039,-0.0021,0.0108,0.0197,0.0389,0.0512,0.0671,0.0765,0.0933,0.1002,0.1055,0.1047,0.0969,0.096,0.0991,0.1084,0.1043,0.1154,0.1129,0.1142,0.1154,0.1138,0.1036,0.1036,0.1158,0.1159,0.1159]}],[{"header":{"parameterUnit":"m.s-1","parameterCategory":2,"la1":30.2991,"la2":30.254,"lo1":-89.0895,"lo2":-89.0444,"dy":0.0017,"dx":0.0017,"nx":28,"ny":28,"refTime":"2025-02-03T09:00:00:Z","depth":"2","parameterNumber":2,"parameterNumberName":"U-component_of_CURRENTS"},"data":[0,0,0,0,0,0,0,0,0,0,0,0,0,0,0,0,0,0,0,0,0,0,0,0,0,0,0,0,0,0,0,0,0,0,0,0,0,0,0,0,0,0,0,0,0,0,0,0,0,0,0,0,0,0,0,0,0,0,-0.1942,-0.1943,0,-0.2082,-0.2084,-0.2086,-0.2117,-0.2115,-0.2114,-0.2113,-0.2046,-0.2045,-0.2045,0,0,0,0,0,0,0,0,0,0,0,0,0,-0.1936,-0.1934,-0.1942,-0.1943,-0.1944,-0.2082,-0.2084,-0.2087,-0.2117,-0.2115,-0.2114,-0.2112,-0.2046,-0.2045,-0.2045,0,0,0,0,0,0,0,0,0,0,0,0,0,-0.1996,-0.1934,-0.1941,-0.1973,-0.1977,-0.2082,-0.2084,-0.2087,-0.2117,-0.2115,-0.2113,-0.2111,-0.2046,-0.2045,-0.2044,-0.2081,0,0,-0.2042,-0.2042,0,0,0,0,0,0,0,0,-0.1993,-0.1997,-0.1967,-0.1971,-0.1976,-0.2076,-0.2058,-0.2074,-0.2118,-0.2068,-0.2113,-0.211,-0.2036,-0.2036,-0.2075,-0.2078,-0.2075,-0.2042,-0.2042,-0.2041,-0.2041,0,0,0,0,0,0,0,-0.1988,-0.1993,-0.2001,-0.1969,-0.1974,-0.2061,-0.2066,-0.2063,-0.2061,-0.2072,-0.2074,-0.2084,-0.2037,-0.2076,-0.2073,-0.2074,-0.2042,-0.2041,-0.2041,-0.2041,-0.2006,-0.2005,0,0,0,0,0,0,-0.1953,-0.1987,-0.1997,-0.2005,-0.1975,-0.2062,-0.2067,-0.2049,-0.2066,-0.2067,-0.2086,-0.2085,-0.2078,-0.2074,-0.207,-0.2044,-0.2041,-0.2041,-0.204,-0.2006,-0.2005,-0.2005,0,0,0,0,0,0,-0.1952,-0.1951,-0.1991,-0.1999,-0.2009,-0.2062,-0.2043,-0.2053,-0.2106,-0.2077,-0.2075,-0.2128,-0.2077,-0.2071,-0.2065,-0.2043,-0.204,-0.204,-0.2007,-0.2006,-0.2005,-0.2035,0,0,0,0,0,0,-0.195,-0.1949,-0.1966,-0.1995,-0.2007,-0.2064,-0.2045,-0.2057,-0.2112,-0.2113,-0.2112,-0.2104,-0.2075,-0.2067,-0.2064,-0.2042,-0.2039,-0.2007,-0.2006,-0.2005,-0.2035,-0.2036,-0.2036,0,0,0,0,0,-0.1949,-0.1989,-0.1964,-0.1968,-0.2012,-0.2066,-0.2082,-0.2117,-0.2116,-0.2155,-0.2134,-0.2105,-0.2057,-0.2067,-0.2064,-0.2041,-0.2008,-0.2007,-0.2005,-0.2035,-0.2035,-0.2036,0,0,0,0,0,0,-0.2009,-0.1995,-0.197,-0.2003,-0.2027,-0.2069,-0.2125,-0.2136,-0.2163,-0.2153,-0.2122,-0.2114,-0.2089,-0.2072,-0.2084,-0.2025,-0.2019,-0.2017,-0.2042,-0.2042,-0.2043,-0.2051,-0.2038,0,0,0,0,0,-0.2019,-0.2027,-0.2028,-0.2053,-0.2067,-0.2096,-0.2135,-0.2142,-0.2154,-0.2169,-0.2146,-0.2115,-0.2087,-0.2072,-0.2046,-0.204,-0.2022,-0.2014,-0.2015,-0.2016,-0.2019,-0.1998,-0.1997,-0.2001,-0.2001,-0.2001,0,0,-0.2044,-0.2041,-0.2045,-0.2065,-0.2088,-0.2112,-0.2117,-0.2167,-0.2172,-0.2151,-0.2153,-0.2124,-0.2087,-0.206,-0.2047,-0.2043,-0.2002,-0.2015,-0.2016,-0.2018,-0.1997,-0.1996,-0.1996,-0.2001,-0.2001,-0.2001,0,0,-0.2093,-0.2093,-0.211,-0.2129,-0.2153,-0.2162,-0.2174,-0.2197,-0.22,-0.2201,-0.2165,-0.2137,-0.2106,-0.2068,-0.2047,-0.2045,-0.2008,-0.202,-0.2031,-0.2011,-0.2011,-0.201,-0.1976,-0.1972,-0.2019,-0.2019,-0.2019,0,-0.2121,-0.2129,-0.2135,-0.2157,-0.2178,-0.2176,-0.2203,-0.2212,-0.222,-0.2212,-0.2193,-0.2138,-0.2107,-0.2072,-0.2055,-0.2046,-0.2025,-0.2034,-0.2013,-0.2013,-0.2012,-0.1976,-0.1972,-0.202,-0.202,-0.202,-0.202,0,-0.2163,-0.2182,-0.2206,-0.22,-0.2233,-0.2264,-0.225,-0.2257,-0.2242,-0.2229,-0.2194,-0.2155,-0.212,-0.2093,-0.2073,-0.204,-0.2022,-0.202,-0.2016,-0.2014,-0.1976,-0.1971,-0.2022,-0.2022,-0.2021,-0.2021,0,0,-0.2158,-0.222,-0.2222,-0.224,-0.2257,-0.2285,-0.2282,-0.2283,-0.2278,-0.2247,-0.2234,-0.2174,-0.2148,-0.2122,-0.2084,-0.2058,-0.2026,-0.2035,-0.2033,-0.2009,-0.1967,-0.1855,-0.1839,-0.2021,-0.2021,-0.2021,-0.1939,0,-0.2176,-0.2242,-0.2255,-0.2301,-0.2333,-0.233,-0.2332,-0.2326,-0.2301,-0.228,-0.2226,-0.2195,-0.2158,-0.2136,-0.2105,-0.2046,-0.2015,-0.2047,-0.1965,-0.1962,-0.1871,-0.183,-0.1692,-0.1599,-0.1934,-0.1933,-0.1932,0,-0.2182,-0.2234,-0.2302,-0.2353,-0.2364,-0.2382,-0.2388,-0.2387,-0.2349,-0.2326,-0.2283,-0.2239,-0.2182,-0.2158,-0.2064,-0.2085,-0.2028,-0.1983,-0.198,-0.1863,-0.1841,-0.1656,-0.1577,-0.1924,-0.1925,-0.1925,-0.1926,0,-0.2177,-0.2248,-0.2313,-0.2333,-0.2393,-0.2408,-0.2418,-0.24,-0.2384,-0.2349,-0.2321,-0.2266,-0.221,-0.2155,-0.2043,-0.2058,-0.1935,-0.195,-0.1797,-0.1788,-0.1647,-0.1626,-0.189,-0.189,-0.189,-0.1891,-0.1891,0,-0.2164,-0.2213,-0.2322,-0.236,-0.2415,-0.2434,-0.245,-0.2449,-0.2415,-0.2362,-0.234,-0.2268,-0.2204,-0.2114,-0.2048,-0.1883,-0.1937,-0.1781,-0.1753,-0.1649,-0.1631,-0.1901,-0.1903,-0.1888,-0.1888,-0.1889,-0.1889,0,-0.2119,-0.2198,-0.2297,-0.2399,-0.2422,-0.2458,-0.2471,-0.244,-0.2437,-0.2362,-0.2344,-0.2258,-0.2124,-0.2049,-0.1931,-0.1853,-0.1744,-0.1678,-0.1548,-0.1504,-0.1616,-0.1621,-0.1508,-0.1503,-0.1499,-0.1496,-0.1493,0,-0.2112,-0.2163,-0.233,-0.2358,-0.2399,-0.2443,-0.2427,-0.2447,-0.2387,-0.2318,-0.2245,-0.2137,-0.1945,-0.1751,-0.1622,-0.1474,-0.1602,-0.1312,-0.1314,-0.1589,-0.1575,-0.1586,-0.1596,-0.1139,-0.1134,-0.1129,-0.1126,0,-0.208,-0.2157,-0.2213,-0.2299,-0.2324,-0.2345,-0.2322,-0.2285,-0.2242,-0.2159,-0.1986,-0.1842,-0.1637,-0.1375,-0.1224,-0.1153,-0.133,-0.1213,-0.1522,-0.1256,-0.1234,-0.1223,-0.1246,-0.1086,-0.109,-0.1093,-0.1095,-0.1096,-0.2047,-0.2062,-0.213,-0.2166,-0.2214,-0.2167,-0.2098,-0.201,-0.1887,-0.1619,-0.164,-0.1335,-0.1295,-0.0903,-0.0859,-0.0878,-0.0962,-0.0962,-0.098,-0.1001,-0.0971,-0.0943,-0.0734,-0.0736,-0.0737,-0.0739,-0.074,0,-0.1927,-0.1928,-0.196,-0.1989,-0.1948,-0.2042,-0.1943,-0.1747,-0.1492,-0.1292,-0.1044,-0.0794,-0.0577,-0.062,-0.0527,-0.0516,-0.0561,-0.0566,-0.0629,-0.0665,-0.0699,-0.0659,-0.0336,-0.0336,-0.0335,-0.0335,0,0,-0.1854,-0.1774,-0.1751,-0.1661,-0.1705,-0.1587,-0.1499,-0.1204,-0.1006,-0.0632,-0.0457,-0.0293,-0.0439,-0.0302,-0.0334,-0.0317,-0.0489,-0.0311,-0.0619,-0.0718,-0.0751,-0.0897,-0.0871,0,0,0,0,0]},{"header":{"parameterUnit":"m.s-1","parameterCategory":2,"la1":30.2991,"la2":30.254,"lo1":-89.0895,"lo2":-89.0444,"dy":0.0017,"dx":0.0017,"nx":28,"ny":28,"refTime":"2025-02-03T09:00:00:Z","depth":"2","parameterNumber":3,"parameterNumberName":"V-component_of_CURRENTS"},"data":[0,0,0,0,0,0,0,0,0,0,0,0,0,0,0,0,0,0,0,0,0,0,0,0,0,0,0,0,0,0,0,0,0,0,0,0,0,0,0,0,0,0,0,0,0,0,0,0,0,0,0,0,0,0,0,0,0,0,-0.081,-0.081,0,-0.0782,-0.0781,-0.0781,-0.078,-0.078,-0.0781,-0.0781,-0.0737,-0.0735,-0.0734,0,0,0,0,0,0,0,0,0,0,0,0,0,-0.08,-0.08,-0.081,-0.081,-0.081,-0.0782,-0.0781,-0.0781,-0.0779,-0.078,-0.0781,-0.0781,-0.0737,-0.0736,-0.0734,0,0,0,0,0,0,0,0,0,0,0,0,0,-0.079,-0.0801,-0.081,-0.0807,-0.0806,-0.0782,-0.0781,-0.0781,-0.0779,-0.078,-0.0781,-0.0781,-0.0738,-0.0736,-0.0733,-0.0705,0,0,-0.0726,-0.0725,0,0,0,0,0,0,0,0,-0.0791,-0.079,-0.0807,-0.0807,-0.0806,-0.0786,-0.0762,-0.0755,-0.0779,-0.0788,-0.0781,-0.0782,-0.0752,-0.0749,-0.074,-0.0703,-0.0701,-0.0726,-0.0724,-0.0723,-0.0723,0,0,0,0,0,0,0,-0.0791,-0.0791,-0.0797,-0.0807,-0.0807,-0.0785,-0.0785,-0.076,-0.0765,-0.0787,-0.0788,-0.0786,-0.0752,-0.0742,-0.0739,-0.07,-0.0726,-0.0724,-0.0722,-0.0721,-0.062,-0.0619,0,0,0,0,0,0,-0.08,-0.0792,-0.0798,-0.0797,-0.0802,-0.0785,-0.0785,-0.0791,-0.0766,-0.0763,-0.0786,-0.0787,-0.0746,-0.0742,-0.0737,-0.0698,-0.0723,-0.0721,-0.072,-0.0621,-0.062,-0.0618,0,0,0,0,0,0,-0.08,-0.0802,-0.08,-0.0794,-0.0793,-0.0785,-0.0791,-0.079,-0.078,-0.0765,-0.0762,-0.0779,-0.0747,-0.0741,-0.0712,-0.0696,-0.072,-0.0718,-0.0623,-0.0621,-0.0619,-0.0621,0,0,0,0,0,0,-0.08,-0.0802,-0.0804,-0.0795,-0.0794,-0.0789,-0.0791,-0.0789,-0.0779,-0.078,-0.0757,-0.0754,-0.0747,-0.0716,-0.071,-0.0693,-0.0716,-0.0624,-0.0622,-0.062,-0.0622,-0.0619,-0.0616,0,0,0,0,0,-0.08,-0.0813,-0.0805,-0.0805,-0.0799,-0.0789,-0.0785,-0.078,-0.0778,-0.0774,-0.0755,-0.0755,-0.0696,-0.0713,-0.0706,-0.0689,-0.0625,-0.0623,-0.062,-0.0623,-0.062,-0.0616,0,0,0,0,0,0,-0.0811,-0.0813,-0.0805,-0.0817,-0.0801,-0.0789,-0.0789,-0.0777,-0.0757,-0.0758,-0.0741,-0.0735,-0.0704,-0.0691,-0.0709,-0.065,-0.066,-0.0655,-0.0665,-0.0661,-0.0658,-0.0653,-0.0714,0,0,0,0,0,-0.0812,-0.0823,-0.081,-0.0817,-0.0813,-0.0795,-0.0788,-0.0781,-0.0766,-0.0758,-0.0739,-0.0714,-0.0685,-0.0671,-0.0647,-0.0614,-0.0579,-0.0597,-0.0594,-0.0592,-0.0581,-0.0512,-0.0502,-0.0609,-0.0609,-0.0609,0,0,-0.0818,-0.0821,-0.0826,-0.082,-0.081,-0.0799,-0.0793,-0.0786,-0.077,-0.0755,-0.0728,-0.0704,-0.0673,-0.064,-0.0624,-0.0629,-0.0541,-0.0588,-0.0587,-0.0577,-0.0508,-0.0498,-0.0489,-0.0607,-0.0608,-0.0608,0,0,-0.0837,-0.0836,-0.0848,-0.0834,-0.0821,-0.0806,-0.0802,-0.0782,-0.0768,-0.0736,-0.0717,-0.0681,-0.0644,-0.0614,-0.0594,-0.0556,-0.0529,-0.055,-0.0531,-0.0465,-0.0456,-0.0447,-0.0387,-0.0373,-0.0548,-0.0548,-0.0548,0,-0.0842,-0.0851,-0.0847,-0.0846,-0.0831,-0.0809,-0.0799,-0.0779,-0.0749,-0.0723,-0.0731,-0.0644,-0.0628,-0.0566,-0.0558,-0.055,-0.0509,-0.0553,-0.0462,-0.0453,-0.0444,-0.0384,-0.0369,-0.0548,-0.0548,-0.0548,-0.0548,0,-0.0866,-0.0861,-0.0866,-0.0855,-0.0837,-0.0827,-0.0796,-0.0774,-0.0751,-0.0719,-0.0656,-0.0622,-0.0567,-0.0557,-0.0549,-0.0474,-0.0463,-0.0468,-0.0475,-0.0433,-0.0373,-0.0357,-0.0548,-0.0548,-0.0548,-0.0548,0,0,-0.0902,-0.0886,-0.0885,-0.0864,-0.0837,-0.0821,-0.0794,-0.0747,-0.0707,-0.0674,-0.0613,-0.0565,-0.0534,-0.0508,-0.0484,-0.0432,-0.0343,-0.0426,-0.0422,-0.0372,-0.0191,-0.0249,-0.0237,-0.0331,-0.0329,-0.0326,-0.0174,0,-0.0914,-0.0914,-0.0899,-0.0868,-0.0853,-0.0814,-0.0779,-0.0732,-0.0688,-0.0625,-0.0573,-0.051,-0.0518,-0.0483,-0.0432,-0.0362,-0.03,-0.0384,-0.0232,-0.0227,-0.029,-0.0221,-0.0271,-0.0145,-0.0158,-0.0155,-0.0153,0,-0.0937,-0.0927,-0.0913,-0.085,-0.0839,-0.0817,-0.0741,-0.0705,-0.062,-0.058,-0.0513,-0.0468,-0.0382,-0.0398,-0.0254,-0.0305,-0.0244,-0.0196,-0.0189,-0.0231,-0.0256,-0.0187,-0.0115,-0.0126,-0.0128,-0.013,-0.0132,0,-0.0961,-0.0926,-0.0912,-0.0896,-0.0835,-0.081,-0.077,-0.0692,-0.0642,-0.0546,-0.0496,-0.0395,-0.0331,-0.0246,-0.0164,-0.0194,-0.0005,-0.0033,-0.0021,-0.0024,-0.0031,-0.0041,0.0085,0.0084,0.0084,0.0084,0.0083,0,-0.0978,-0.0959,-0.0919,-0.0912,-0.0864,-0.0815,-0.0751,-0.0701,-0.061,-0.0545,-0.0471,-0.0404,-0.0288,-0.0182,-0.0121,-0.002,0.0036,0.0005,0.0019,-0.0035,-0.0046,-0.0008,-0.0021,0.0089,0.0088,0.0087,0.0086,0,-0.1014,-0.099,-0.0963,-0.0905,-0.0881,-0.0849,-0.0758,-0.071,-0.062,-0.0536,-0.0503,-0.0374,-0.0246,-0.0133,0.0025,0.0037,0.0135,0.0159,0.008,0.008,0.0063,0.0048,0.0194,0.0193,0.0193,0.0192,0.0192,0,-0.1037,-0.1035,-0.098,-0.0961,-0.0938,-0.0877,-0.0836,-0.0734,-0.0686,-0.0532,-0.05,-0.0342,-0.0288,-0.008,0.001,0.0126,0.0168,0.0157,0.0075,0.0079,0.0079,0.0065,0.0051,0.0083,0.0082,0.0081,0.008,0,-0.1079,-0.1065,-0.1048,-0.1018,-0.0979,-0.0916,-0.0854,-0.0816,-0.0696,-0.0627,-0.0529,-0.0476,-0.0294,-0.0195,-0.0037,0.0021,0.0123,0.0135,0.0215,0.003,-0.0022,-0.0025,-0.0034,0.0071,0.0072,0.0073,0.0073,0.0073,-0.1112,-0.1117,-0.1104,-0.1071,-0.1021,-0.0968,-0.0918,-0.0867,-0.0796,-0.0673,-0.0613,-0.0504,-0.0386,-0.0202,-0.0084,0.0058,0.0031,0.0067,0.007,0.0075,0.0001,-0.0053,0.0023,0.0023,0.0024,0.0024,0.0025,0,-0.1146,-0.116,-0.1153,-0.1108,-0.1076,-0.1017,-0.0932,-0.0869,-0.0814,-0.0713,-0.0643,-0.0496,-0.0418,-0.0226,-0.0073,-0.0025,-0.0014,0.0042,0.0044,0.0049,0.0054,-0.0019,-0.0002,-0.0001,-0.0001,0.0,0,0,-0.1163,-0.1183,-0.1187,-0.1164,-0.1125,-0.1036,-0.0977,-0.0875,-0.0776,-0.0669,-0.0571,-0.0538,-0.0392,-0.0262,-0.0174,-0.0066,-0.0012,-0.0047,-0.0048,-0.0056,-0.005,0.0029,-0.0085,0,0,0,0,0]}],[{"header":{"parameterUnit":"m.s-1","parameterCategory":2,"la1":30.2991,"la2":30.254,"lo1":-89.0895,"lo2":-89.0444,"dy":0.0017,"dx":0.0017,"nx":28,"ny":28,"refTime":"2025-02-03T09:00:00:Z","depth":"4","parameterNumber":2,"parameterNumberName":"U-component_of_CURRENTS"},"data":[0,0,0,0,0,0,0,0,0,0,0,0,0,0,0,0,0,0,0,0,0,0,0,0,0,0,0,0,0,0,0,0,0,0,0,0,0,0,0,0,0,0,0,0,0,0,0,0,0,0,0,0,0,0,0,0,0,0,-0.063,-0.0631,0,-0.0663,-0.0664,-0.0664,-0.0715,-0.0716,-0.0717,-0.0718,-0.0766,-0.0766,-0.0767,0,0,0,0,0,0,0,0,0,0,0,0,0,-0.057,-0.0571,-0.063,-0.0631,-0.0631,-0.0663,-0.0664,-0.0664,-0.0714,-0.0716,-0.0717,-0.0718,-0.0766,-0.0766,-0.0767,0,0,0,0,0,0,0,0,0,0,0,0,0,-0.0598,-0.0571,-0.063,-0.0662,-0.0665,-0.0663,-0.0664,-0.0664,-0.0714,-0.0716,-0.0717,-0.0719,-0.0766,-0.0766,-0.0767,-0.0738,0,0,-0.0768,-0.0768,0,0,0,0,0,0,0,0,-0.0596,-0.06,-0.0656,-0.0659,-0.0663,-0.0688,-0.066,-0.069,-0.0714,-0.0694,-0.0718,-0.072,-0.0741,-0.0744,-0.0744,-0.074,-0.0742,-0.0768,-0.0768,-0.0769,-0.0769,0,0,0,0,0,0,0,-0.0594,-0.0598,-0.0642,-0.0657,-0.0661,-0.066,-0.0666,-0.0666,-0.0707,-0.0696,-0.07,-0.0705,-0.0743,-0.0743,-0.0746,-0.0743,-0.0768,-0.0768,-0.0769,-0.0769,-0.0823,-0.0824,0,0,0,0,0,0,-0.0594,-0.0596,-0.0641,-0.0643,-0.0634,-0.066,-0.0667,-0.0677,-0.0707,-0.0714,-0.0704,-0.0708,-0.0742,-0.0745,-0.0747,-0.0776,-0.0769,-0.0769,-0.0769,-0.0822,-0.0823,-0.0824,0,0,0,0,0,0,-0.0592,-0.0597,-0.064,-0.0621,-0.0627,-0.066,-0.0671,-0.0677,-0.0681,-0.0714,-0.072,-0.0703,-0.0743,-0.0747,-0.0769,-0.0776,-0.0769,-0.077,-0.082,-0.0822,-0.0824,-0.0795,0,0,0,0,0,0,-0.059,-0.0597,-0.0606,-0.0622,-0.0628,-0.0649,-0.067,-0.0677,-0.0683,-0.0688,-0.0715,-0.0721,-0.0745,-0.0768,-0.077,-0.0777,-0.077,-0.0819,-0.0821,-0.0823,-0.0794,-0.0795,-0.0796,0,0,0,0,0,-0.0588,-0.0588,-0.0606,-0.0612,-0.064,-0.0649,-0.0652,-0.0679,-0.0681,-0.0687,-0.0713,-0.072,-0.0784,-0.0769,-0.077,-0.0778,-0.0818,-0.0821,-0.0823,-0.0794,-0.0795,-0.0796,0,0,0,0,0,0,-0.0565,-0.0594,-0.0614,-0.0625,-0.0643,-0.0659,-0.0659,-0.067,-0.069,-0.0702,-0.0721,-0.0729,-0.076,-0.0771,-0.0754,-0.0806,-0.0807,-0.081,-0.0784,-0.0786,-0.0787,-0.0843,-0.077,0,0,0,0,0,-0.0565,-0.0581,-0.0603,-0.0616,-0.0616,-0.0633,-0.0638,-0.0665,-0.0682,-0.0692,-0.0717,-0.0747,-0.0768,-0.0778,-0.0809,-0.0814,-0.0828,-0.0828,-0.0829,-0.0829,-0.088,-0.0873,-0.0877,-0.0833,-0.0833,-0.0833,0,0,-0.0563,-0.058,-0.0591,-0.0613,-0.0621,-0.0635,-0.064,-0.0655,-0.0683,-0.0693,-0.0733,-0.075,-0.0774,-0.0804,-0.0817,-0.0812,-0.0846,-0.0833,-0.0832,-0.0884,-0.0876,-0.088,-0.0884,-0.0835,-0.0834,-0.0834,0,0,-0.0555,-0.0573,-0.0578,-0.0597,-0.0622,-0.0636,-0.0637,-0.0663,-0.0688,-0.0728,-0.0744,-0.0781,-0.0804,-0.0836,-0.0847,-0.087,-0.0855,-0.0859,-0.0898,-0.0888,-0.0892,-0.0895,-0.0893,-0.0897,-0.0851,-0.0851,-0.0851,0,-0.0553,-0.0567,-0.058,-0.0592,-0.061,-0.0632,-0.0644,-0.0669,-0.0713,-0.0732,-0.0753,-0.0823,-0.0838,-0.0869,-0.089,-0.0875,-0.0859,-0.0879,-0.0887,-0.0891,-0.0895,-0.0893,-0.0897,-0.085,-0.085,-0.085,-0.0851,0,-0.055,-0.057,-0.0567,-0.0598,-0.0617,-0.0632,-0.067,-0.07,-0.0733,-0.0767,-0.0828,-0.0871,-0.0917,-0.0913,-0.0912,-0.094,-0.0914,-0.0886,-0.0876,-0.0897,-0.0894,-0.0898,-0.0849,-0.0849,-0.0849,-0.085,0,0,-0.0527,-0.0559,-0.0563,-0.0576,-0.0627,-0.0634,-0.0683,-0.072,-0.0743,-0.0823,-0.086,-0.0932,-0.0962,-0.0984,-0.098,-0.0987,-0.0987,-0.0947,-0.0947,-0.0935,-0.0956,-0.0841,-0.0835,-0.0927,-0.0928,-0.0929,-0.0932,0,-0.0521,-0.0533,-0.0564,-0.059,-0.0591,-0.0645,-0.0684,-0.0736,-0.078,-0.0824,-0.0896,-0.0946,-0.0979,-0.0999,-0.1015,-0.0987,-0.1003,-0.099,-0.0952,-0.0953,-0.0838,-0.0839,-0.0934,-0.0936,-0.0937,-0.0937,-0.0938,0,-0.0513,-0.0518,-0.0534,-0.0577,-0.0583,-0.0616,-0.0669,-0.0708,-0.078,-0.0828,-0.0907,-0.0954,-0.102,-0.1031,-0.1059,-0.1032,-0.1023,-0.1011,-0.1009,-0.0932,-0.0849,-0.092,-0.0947,-0.0946,-0.0946,-0.0945,-0.0944,0,-0.0472,-0.0503,-0.0509,-0.0528,-0.058,-0.0607,-0.0636,-0.0707,-0.0736,-0.0827,-0.0856,-0.0955,-0.0985,-0.1018,-0.1016,-0.1031,-0.1002,-0.101,-0.0919,-0.091,-0.1025,-0.1022,-0.1053,-0.1053,-0.1053,-0.1053,-0.1053,0,-0.0455,-0.0459,-0.0489,-0.0496,-0.0512,-0.0567,-0.0602,-0.0651,-0.072,-0.0738,-0.0847,-0.0868,-0.0976,-0.0971,-0.0997,-0.0948,-0.0989,-0.0952,-0.0907,-0.101,-0.1005,-0.1026,-0.1023,-0.1053,-0.1053,-0.1053,-0.1053,0,-0.0414,-0.0437,-0.0439,-0.048,-0.0494,-0.0503,-0.0568,-0.0592,-0.0658,-0.0682,-0.0718,-0.0793,-0.0804,-0.0867,-0.0889,-0.0888,-0.0877,-0.0848,-0.0946,-0.0902,-0.0815,-0.0811,-0.0804,-0.08,-0.0797,-0.0794,-0.0792,0,-0.0391,-0.0388,-0.0413,-0.0413,-0.0432,-0.0459,-0.0486,-0.0563,-0.0579,-0.0613,-0.0604,-0.0642,-0.0692,-0.063,-0.0709,-0.0758,-0.0759,-0.0758,-0.0845,-0.0835,-0.0792,-0.0793,-0.0794,-0.0787,-0.0786,-0.0785,-0.0784,0,-0.034,-0.0354,-0.0356,-0.0361,-0.0377,-0.0392,-0.042,-0.0427,-0.0493,-0.0542,-0.0501,-0.0528,-0.0513,-0.0569,-0.0581,-0.0619,-0.0769,-0.0725,-0.0735,-0.0818,-0.0813,-0.0774,-0.0779,-0.0772,-0.0774,-0.0775,-0.0776,0,-0.0308,-0.0292,-0.0304,-0.0305,-0.0318,-0.0317,-0.0346,-0.0352,-0.0377,-0.042,-0.0383,-0.0418,-0.0466,-0.0488,-0.0488,-0.0522,-0.0579,-0.0603,-0.0621,-0.0635,-0.0583,-0.0553,-0.0406,0,0,0,0,0,-0.028,-0.0257,-0.0248,-0.0251,-0.0264,-0.0273,-0.03,-0.0332,-0.0377,-0.0331,-0.0367,-0.036,-0.0385,-0.0395,-0.0415,-0.0467,-0.0599,-0.0489,-0.064,-0.0708,-0.0721,-0.0679,0,0,0,0,0,0,-0.0259,-0.0246,-0.0232,-0.0209,-0.0202,-0.0215,-0.0229,-0.0259,-0.0241,-0.0281,-0.0293,-0.033,-0.0364,-0.0368,-0.04,-0.0414,-0.0503,-0.0522,-0.0521,-0.0701,-0.0713,-0.0723,-0.0684,0,0,0,0,0]},{"header":{"parameterUnit":"m.s-1","parameterCategory":2,"la1":30.2991,"la2":30.254,"lo1":-89.0895,"lo2":-89.0444,"dy":0.0017,"dx":0.0017,"nx":28,"ny":28,"refTime":"2025-02-03T09:00:00:Z","depth":"4","parameterNumber":3,"parameterNumberName":"V-component_of_CURRENTS"},"data":[0,0,0,0,0,0,0,0,0,0,0,0,0,0,0,0,0,0,0,0,0,0,0,0,0,0,0,0,0,0,0,0,0,0,0,0,0,0,0,0,0,0,0,0,0,0,0,0,0,0,0,0,0,0,0,0,0,0,-0.0498,-0.0498,0,-0.0521,-0.0521,-0.0522,-0.0522,-0.0522,-0.0521,-0.0521,-0.0549,-0.055,-0.0551,0,0,0,0,0,0,0,0,0,0,0,0,0,-0.0467,-0.0467,-0.0498,-0.0498,-0.0499,-0.0521,-0.0521,-0.0522,-0.0522,-0.0522,-0.0521,-0.0521,-0.0549,-0.055,-0.0551,0,0,0,0,0,0,0,0,0,0,0,0,0,-0.0484,-0.0467,-0.0498,-0.0501,-0.0502,-0.0521,-0.0521,-0.0522,-0.0522,-0.0522,-0.0521,-0.0521,-0.0548,-0.055,-0.0551,-0.057,0,0,-0.0556,-0.0557,0,0,0,0,0,0,0,0,-0.0483,-0.0485,-0.0501,-0.0501,-0.0502,-0.0518,-0.0521,-0.0538,-0.0522,-0.0514,-0.0521,-0.052,-0.054,-0.0542,-0.0547,-0.0571,-0.0572,-0.0556,-0.0557,-0.0558,-0.0558,0,0,0,0,0,0,0,-0.0482,-0.0484,-0.0507,-0.0501,-0.0502,-0.0506,-0.0508,-0.0524,-0.0529,-0.0515,-0.0515,-0.0518,-0.054,-0.0546,-0.0548,-0.0573,-0.0556,-0.0558,-0.0558,-0.0559,-0.0639,-0.064,0,0,0,0,0,0,-0.0479,-0.0483,-0.0506,-0.0508,-0.0491,-0.0507,-0.0509,-0.0513,-0.0529,-0.0531,-0.0518,-0.0518,-0.0543,-0.0546,-0.0549,-0.06,-0.0558,-0.0559,-0.056,-0.0638,-0.064,-0.0641,0,0,0,0,0,0,-0.0478,-0.0481,-0.0506,-0.0496,-0.0499,-0.0508,-0.0513,-0.0514,-0.0524,-0.0531,-0.0533,-0.0527,-0.0543,-0.0547,-0.0572,-0.06,-0.056,-0.0561,-0.0637,-0.0639,-0.064,-0.0684,0,0,0,0,0,0,-0.0477,-0.048,-0.049,-0.0496,-0.05,-0.0527,-0.0513,-0.0515,-0.0526,-0.0525,-0.0539,-0.0541,-0.0543,-0.057,-0.0574,-0.0601,-0.0563,-0.0635,-0.0637,-0.064,-0.0681,-0.0687,-0.0693,0,0,0,0,0,-0.0476,-0.0488,-0.0491,-0.0494,-0.051,-0.0527,-0.0531,-0.0535,-0.0527,-0.054,-0.0547,-0.0541,-0.0587,-0.0572,-0.0576,-0.0605,-0.0634,-0.0637,-0.0639,-0.0679,-0.0686,-0.0692,0,0,0,0,0,0,-0.0473,-0.0489,-0.0492,-0.0507,-0.0521,-0.0528,-0.0541,-0.0539,-0.0555,-0.0557,-0.0556,-0.0559,-0.0597,-0.0593,-0.0576,-0.0635,-0.061,-0.0614,-0.0639,-0.0646,-0.0651,-0.0659,-0.0564,0,0,0,0,0,-0.0479,-0.0497,-0.0508,-0.0522,-0.053,-0.0537,-0.0545,-0.055,-0.056,-0.0566,-0.0578,-0.0591,-0.0611,-0.062,-0.0641,-0.0668,-0.0658,-0.069,-0.0695,-0.07,-0.071,-0.0713,-0.072,-0.065,-0.065,-0.065,0,0,-0.0484,-0.0493,-0.0505,-0.0524,-0.0534,-0.0557,-0.0541,-0.0561,-0.0583,-0.0568,-0.0607,-0.0617,-0.0625,-0.0662,-0.0677,-0.066,-0.0714,-0.0704,-0.0708,-0.0715,-0.0717,-0.0724,-0.073,-0.0652,-0.0651,-0.0651,0,0,-0.0499,-0.051,-0.0531,-0.0548,-0.0569,-0.0577,-0.0584,-0.0602,-0.0614,-0.0649,-0.0647,-0.0675,-0.0701,-0.0717,-0.0724,-0.0773,-0.0749,-0.0775,-0.0806,-0.0809,-0.0815,-0.082,-0.0809,-0.0813,-0.0772,-0.0772,-0.0772,0,-0.0504,-0.053,-0.0539,-0.0564,-0.0583,-0.0587,-0.0615,-0.0631,-0.0657,-0.0675,-0.067,-0.0725,-0.0733,-0.0773,-0.0788,-0.0789,-0.0774,-0.0778,-0.0816,-0.0821,-0.0825,-0.0813,-0.0816,-0.0774,-0.0774,-0.0774,-0.0774,0,-0.0534,-0.0561,-0.0575,-0.061,-0.0631,-0.0658,-0.068,-0.0707,-0.0721,-0.0737,-0.0788,-0.0802,-0.0832,-0.084,-0.0828,-0.0866,-0.084,-0.0826,-0.0796,-0.0834,-0.082,-0.0822,-0.0778,-0.0777,-0.0776,-0.0776,0,0,-0.0528,-0.0587,-0.0593,-0.062,-0.0661,-0.0679,-0.0723,-0.0762,-0.0788,-0.0825,-0.086,-0.0904,-0.0908,-0.0917,-0.0912,-0.0913,-0.0929,-0.0879,-0.0878,-0.0864,-0.092,-0.0817,-0.0809,-0.0911,-0.0912,-0.0913,-0.0895,0,-0.0551,-0.0603,-0.0629,-0.0684,-0.0714,-0.0742,-0.0783,-0.082,-0.0844,-0.088,-0.0905,-0.0941,-0.0937,-0.0949,-0.0956,-0.0935,-0.0938,-0.0934,-0.0889,-0.0888,-0.0788,-0.081,-0.0916,-0.0897,-0.0897,-0.0898,-0.0898,0,-0.0572,-0.0605,-0.0663,-0.0727,-0.0743,-0.0781,-0.0838,-0.0873,-0.092,-0.0943,-0.0981,-0.0989,-0.1019,-0.0999,-0.1002,-0.0993,-0.0967,-0.0946,-0.0945,-0.0836,-0.079,-0.0853,-0.0903,-0.0902,-0.0902,-0.0902,-0.0901,0,-0.0561,-0.0628,-0.0676,-0.07,-0.0771,-0.0808,-0.0845,-0.0898,-0.0924,-0.0978,-0.0992,-0.1035,-0.1041,-0.1038,-0.0989,-0.1001,-0.0957,-0.097,-0.086,-0.0852,-0.0931,-0.0926,-0.0975,-0.0975,-0.0975,-0.0975,-0.0975,0,-0.0573,-0.0611,-0.068,-0.0708,-0.077,-0.0814,-0.0875,-0.0916,-0.096,-0.0974,-0.102,-0.1014,-0.1047,-0.1015,-0.0993,-0.0912,-0.0963,-0.0869,-0.0842,-0.0949,-0.0946,-0.0932,-0.0927,-0.0974,-0.0974,-0.0974,-0.0975,0,-0.0559,-0.0605,-0.0664,-0.0743,-0.0772,-0.0814,-0.0889,-0.0914,-0.0962,-0.0974,-0.099,-0.1002,-0.0962,-0.0957,-0.0927,-0.0894,-0.0845,-0.08,-0.0894,-0.0872,-0.0748,-0.0746,-0.0718,-0.0714,-0.0711,-0.0708,-0.0706,0,-0.0558,-0.0591,-0.0681,-0.0712,-0.0755,-0.082,-0.0856,-0.0917,-0.0916,-0.0937,-0.0914,-0.0903,-0.0897,-0.0788,-0.0784,-0.0744,-0.0728,-0.0714,-0.0768,-0.0745,-0.0723,-0.0726,-0.0728,-0.0701,-0.07,-0.0699,-0.0699,0,-0.0558,-0.0596,-0.0639,-0.0703,-0.075,-0.079,-0.0827,-0.0829,-0.0862,-0.0902,-0.0843,-0.0818,-0.0755,-0.0727,-0.0678,-0.0648,-0.074,-0.0681,-0.069,-0.074,-0.0724,-0.0706,-0.0712,-0.0688,-0.0689,-0.069,-0.0691,0,-0.0555,-0.0578,-0.0634,-0.0686,-0.0731,-0.0736,-0.0774,-0.0762,-0.0777,-0.079,-0.0751,-0.0733,-0.0738,-0.0669,-0.0614,-0.0582,-0.0601,-0.0612,-0.0625,-0.0637,-0.0612,-0.058,-0.0477,0,0,0,0,0,-0.055,-0.0567,-0.0609,-0.0657,-0.0693,-0.0716,-0.0733,-0.0754,-0.0774,-0.0721,-0.0744,-0.0682,-0.0624,-0.0598,-0.055,-0.0564,-0.0595,-0.0504,-0.0615,-0.0626,-0.0639,-0.0613,0,0,0,0,0,0,-0.0542,-0.0581,-0.0595,-0.0613,-0.0635,-0.066,-0.067,-0.0687,-0.0652,-0.0677,-0.0642,-0.0657,-0.0598,-0.0654,-0.0546,-0.0537,-0.0595,-0.0491,-0.0489,-0.0619,-0.0631,-0.0641,-0.0619,0,0,0,0,0]}]]